Home > Weather > Samara > Past weeks

Flag for Russia Past Weather in Samara, Russia — Yesterday and Last 2 Weeks

Now
64 °F

Haze.


Feels Like: 64 °F
Forecast: 61 / 80 °F
Wind: 8 mph from Northeast

Location: Samara

Current Time: Jul 26, 2016 at 8:38:22 AM

Latest Report: Jul 26, 2016 at 8:00 AM


Visibility: 3 mi

Pressure: 29.98 "Hg

Humidity: 73%

Dew Point: 55 °F

Location of SamaraLocation

Past Weather in Samara — Graph

°F

Samara Temperature Yesterday

Maximum temperature yesterday: 82 °F (at 2:00 PM)
Minimum temperature yesterday: 64 °F (at 4:00 AM)
Average temperature yesterday: 73 °F

High & Low Weather Summary for the Past Weeks

 TemperatureHumidityPressure
High91 °F (Jul 17, 12:30 PM)100% (Jul 22, 4:00 PM)30.01 "Hg (Jul 22, 4:00 PM)
Low57 °F (Jul 24, 3:30 AM)33% (Jul 16, 4:30 PM)29.74 "Hg (Jul 19, 6:00 PM)
Average74 °F63%29.87 "Hg
* Reported Jul 11 7:00 AM — Jul 26 7:30 AM, Samara, Weather by CustomWeather, © 2016

Note: Actual official high and low records may vary slightly from our data, if they occured in-between our weather recording intervals... More about our weather records

Advertising

Samara Weather History for the Previous 24 Hours

Scroll right to see more
 ConditionsComfort  
Time TempWeatherWind HumidityBarometerVisibility
7:30 AM
Tue, Jul 26
64 °FFog.8 mph68%29.98 "Hg3 mi
7:00 AM63 °FFog.6 mph73%29.98 "Hg3 mi
6:30 AM61 °FFog.6 mph77%29.98 "Hg3 mi
6:00 AM61 °FFog.3 mph77%29.95 "Hg3 mi
5:30 AM59 °FFog.3 mph82%29.95 "Hg3 mi
5:00 AM59 °FFog.3 mph82%29.95 "Hg3 mi
4:30 AM61 °FFog.6 mph77%29.95 "Hg3 mi
4:00 AM61 °FFog.3 mph77%29.95 "Hg3 mi
3:30 AM61 °FFog.1 mph77%29.95 "Hg3 mi
3:00 AM63 °FFog.8 mph73%29.95 "Hg3 mi
2:30 AM63 °FFog.8 mph73%29.95 "Hg3 mi
2:00 AM63 °FFog.8 mph77%29.92 "Hg3 mi
1:30 AM64 °FFog.8 mph73%29.95 "Hg3 mi
1:00 AM64 °FFog.8 mph73%29.92 "Hg3 mi
12:30 AM64 °FFog.8 mph73%29.95 "Hg3 mi
12:00 AM66 °FHaze.8 mph68%29.95 "Hg3 mi
11:30 PM
Mon, Jul 25
68 °FHaze.8 mph69%29.92 "Hg3 mi
11:00 PM68 °FHaze.10 mph69%29.92 "Hg3 mi
10:30 PM70 °FHaze.8 mph64%29.92 "Hg3 mi
10:00 PM72 °FHaze.10 mph61%29.92 "Hg3 mi
9:30 PM73 °FHaze.10 mph57%29.92 "Hg3 mi
9:00 PM73 °FHaze.10 mph57%29.92 "Hg3 mi
8:30 PM75 °FSunny.10 mph54%29.89 "Hg10 mi
8:00 PM77 °FSunny.15 mph51%29.89 "Hg10 mi
7:30 PM79 °FSunny.13 mph48%29.89 "Hg10 mi
7:00 PM79 °FSunny.15 mph48%29.86 "Hg10 mi
6:30 PM79 °FPassing clouds.15 mph48%29.86 "HgN/A
6:00 PM81 °FScattered clouds.15 mph45%29.86 "HgN/A
5:30 PM79 °FScattered clouds.15 mph48%29.86 "HgN/A
5:00 PM81 °FScattered clouds.15 mph48%29.86 "HgN/A
4:30 PM81 °FScattered clouds.15 mph48%29.83 "HgN/A
4:00 PM81 °FScattered clouds.13 mph45%29.86 "HgN/A
3:30 PM81 °FScattered clouds.13 mph48%29.86 "HgN/A
3:00 PM82 °FScattered clouds.10 mph45%29.86 "HgN/A
2:30 PM81 °FScattered clouds.13 mph51%29.86 "HgN/A
2:00 PM82 °FScattered clouds.10 mph48%29.86 "HgN/A
1:00 PM79 °FScattered clouds.10 mph54%29.86 "HgN/A
12:30 PM79 °FScattered clouds.10 mph51%29.86 "HgN/A
12:00 PM79 °FScattered clouds.13 mph51%29.86 "HgN/A
11:30 AM79 °FScattered clouds.13 mph51%29.86 "HgN/A
11:00 AM79 °FScattered clouds.13 mph51%29.86 "HgN/A
10:30 AM75 °FScattered clouds.13 mph61%29.86 "HgN/A
10:00 AM75 °FSunny.10 mph65%29.86 "Hg10 mi
9:30 AM73 °FSunny.10 mph69%29.86 "Hg10 mi
9:00 AM72 °FSunny.8 mph73%29.86 "Hg10 mi
8:30 AM72 °FSunny.10 mph69%29.86 "Hg10 mi
8:00 AM70 °FFog.8 mph73%29.86 "Hg3 mi
Weather by CustomWeather, © 2016

See weather overviewHow to use our weather pages